Flag for Canada Weather past 2 weeks in Drummondville, Quebec, Canada

Now
20 °F

Cold.


Feels Like: 15 °F
Forecast: 13 / 29 °F
Wind: 3 mph from North

Location: Nicolet

Current Time: Apr 1, 2015 at 6:19:46 AM

Latest Report: Apr 1, 2015 at 5:00 AM


Visibility: N/A

Pressure: 29.96 "Hg

Humidity: 48%

Dew point: 3 °F

Location of DrummondvilleLocation

Historic Weather in Drummondville — Graph

°F

Drummondville temperature yesterday

Maximum temperature yesterday: 34 °F (at 12:00 AM)
Minimum temperature yesterday: 21 °F (at 10:00 AM)
Average temperature yesterday: 27 °F

Past Weeks' High & Low Weather Summary

 TemperatureHumidityPressure
High40 °F (Mar 25, 5:00 PM)100% (Mar 21, 6:00 PM)30.39 "Hg (Mar 21, 6:00 PM)
Low1 °F (Mar 22, 8:00 AM)25% (Mar 28, 6:00 PM)29.45 "Hg (Mar 17, 11:00 AM)
Average23 °F64%29.97 "Hg
* Reported Mar 17 5:00 AM — Apr 1 5:00 AM, Drummondville, Weather by CustomWeather, © 2015

Note: Actual official high and low records may vary slightly from our data, if they occured in-between our weather recording intervals... More about our weather records

Advertising

Drummondville weather history for previous 24 hours

 ConditionsComfort  
Time TempWeatherWind HumidityBarometerVisibility
5:00 AM
Wed, Apr 1
20 °FCold.3 mph48%29.96 "HgN/A
4:00 AM20 °FCold.3 mph51%29.94 "HgN/A
3:00 AM22 °FCold.2 mph43%29.93 "HgN/A
2:00 AM26 °FChilly.5 mph36%29.91 "HgN/A
1:00 AM25 °FCold.6 mph38%29.90 "HgN/A
12:00 AM27 °FChilly.7 mph38%29.89 "HgN/A
11:00 PM
Tue, Mar 31
28 °FChilly.5 mph44%29.87 "HgN/A
10:00 PM29 °FChilly.5 mph46%29.85 "HgN/A
9:00 PM26 °FChilly.1 mph62%29.84 "HgN/A
8:00 PM28 °FChilly.1 mph57%29.83 "HgN/A
6:00 PM31 °FChilly.6 mph50%29.79 "HgN/A
4:00 PM29 °FChilly.10 mph56%29.76 "HgN/A
2:00 PM26 °FChilly.8 mph61%29.76 "HgN/A
1:00 PM24 °FCold.7 mph53%29.78 "HgN/A
12:00 PM22 °FCold.8 mph60%29.79 "HgN/A
11:00 AM22 °FCold.9 mph60%29.79 "HgN/A
10:00 AM21 °FCold.10 mph65%29.79 "HgN/A
9:00 AM22 °FCold.10 mph66%29.78 "HgN/A
8:00 AM23 °FCold.8 mph69%29.77 "HgN/A
7:00 AM23 °FCold.8 mph70%29.75 "HgN/A
Weather by CustomWeather, © 2015

See weather overviewHow to use our weather pages